Flag for United Arab Emirates Weather past 2 weeks in Abu Dhabi, Abu Dhabi, United Arab Emirates

Now
102 °F

Passing clouds.


Feels Like: 103 °F
Forecast: 89 / 99 °F
Wind: 7 mph from Southwest

Location: Abu Dhabi Bateen Airport

Current Time: Sep 23, 2014 at 3:09:47 PM

Latest Report: Sep 23, 2014 at 2:00 PM


Visibility: N/A

Pressure: 29.65 "Hg

Humidity: 26%

Dew point: 61 °F

Location of Abu DhabiLocation

Historic Weather in Abu Dhabi — Graph

°F

Abu Dhabi temperature yesterday

Maximum temperature yesterday: 108 °F (at 2:00 PM)
Minimum temperature yesterday: 82 °F (at 6:00 AM)
Average temperature yesterday: 93 °F

Past Weeks' High & Low Weather Summary

 TemperatureHumidityPressure
High109 °F (Sep 9, 2:00 PM)89% (Sep 11, 7:00 AM)29.80 "Hg (Sep 11, 7:00 AM)
Low82 °F (Sep 22, 6:00 AM)14% (Sep 8, 7:00 PM)29.53 "Hg (Sep 8, 4:00 PM)
Average93 °F62%29.63 "Hg
* Reported Sep 8 3:00 PM — Sep 23 2:00 PM, Abu Dhabi, Weather by CustomWeather, © 2014

Note: Actual official high and low records may vary slightly from our data, if they occured in-between our weather recording intervals... More about our weather records

Advertising

Abu Dhabi weather history for previous 24 hours

 ConditionsComfort  
Time TempWeatherWind HumidityBarometerVisibility
2:00 PM
Sep 23
102 °FPassing clouds.7 mph26%29.65 "HgN/A
1:00 PM102 °FClear.8 mph27%29.68 "Hg6 mi
12:00 PM97 °FClear.10 mph32%29.71 "Hg4 mi
11:00 AM95 °FClear.10 mph36%29.74 "Hg5 mi
10:00 AM91 °FClear.12 mph41%29.74 "Hg6 mi
9:00 AM88 °FSunny.12 mph46%29.74 "Hg10 mi
8:00 AM88 °FClear.9 mph52%29.74 "Hg5 mi
7:00 AM86 °FScattered clouds.6 mph84%29.71 "Hg3 mi
6:00 AM86 °FPassing clouds.5 mph84%29.68 "Hg4 mi
5:00 AM86 °FPassing clouds.6 mph84%29.68 "Hg4 mi
4:00 AM88 °FPassing clouds.2 mph79%29.65 "Hg4 mi
3:00 AM88 °FPassing clouds.3 mph79%29.65 "Hg4 mi
2:00 AM88 °FPassing clouds.2 mph84%29.65 "Hg4 mi
1:00 AM90 °FClear.3 mph79%29.68 "Hg5 mi
12:00 AM90 °FPassing clouds.5 mph79%29.68 "HgN/A
11:00 PM
Sep 22
90 °FPassing clouds.7 mph75%29.68 "HgN/A
10:00 PM91 °FClear.7 mph71%29.68 "Hg10 mi
9:00 PM91 °FClear.8 mph71%29.68 "Hg10 mi
8:00 PM91 °FClear.8 mph71%29.65 "Hg10 mi
7:00 PM93 °FClear.9 mph56%29.62 "Hg10 mi
6:00 PM97 °FSunny.12 mph53%29.62 "Hg10 mi
5:00 PM99 °FSunny.10 mph47%29.62 "Hg10 mi
4:00 PM100 °FSunny.12 mph45%29.62 "Hg10 mi
3:00 PM106 °FPassing clouds.9 mph22%29.62 "HgN/A
Weather by CustomWeather, © 2014

See weather overviewHow to use our weather pages